Temperature
15 15 15 15 15 14 14 14 14 14 14 14 14 14 13 13 13 13 13 13 13 13 13 12 12 12 12 12 12 12 12 12 12 12 12 12 12 12 12 12 11 11 11
15 14 14 14 14 14 14 14 14 14 14 14 13 13 13 13 13 13 13 13 13 13 12 12 12 12 12 12 12 12 12 12 12 12 12 12 12 11 11 11 11 11 11
14 14 14 14 14 14 14 14 14 13 13 13 13 13 13 13 13 13 13 13 13 12 12 12 12 12 12 12 12 12 12 12 12 11 11 11 11 11 11 11 11 11 11
14 14 14 14 13 13 13 13 13 13 13 13 13 13 13 13 12 12 12 12 12 12 12 12 12 12 12 12 11 11 11 11 11 11 11 11 11 11 11 11 10 10 10
13 13 13 13 13 13 13 13 13 13 13 12 12 12 12 12 12 12 12 12 12 12 12 12 12 12 12 11 11 11 11 11 11 11 11 11 11 11 10 10 10 10 10
13 13 13 13 13 13 13 12 12 12 12 12 12 12 12 12 12 12 12 12 12 12 11 11 11 11 11 11 11 11 11 11 11 11 11 11 11 11 10 10 10 10 10
12 12 12 12 12 12 12 12 12 12 12 12 12 12 12 12 12 12 12 11 11 11 11 11 11 11 11 11 11 11 11 11 11 11 11 11 10 10 10 10 10 10 10
12 12 12 12 11 11 11 12 12 11 11 11 11 11 11 11 11 11 11 11 11 11 11 11 11 11 11 11 11 10 10 11 11 11 10 10 10 10 10 10 10 9 9
12 12 11 11 11 11 11 11 11 11 11 11 11 11 11 11 11 11 11 10 10 10 11 11 11 11 11 11 10 10 10 10 10 11 10 10 10 10 10 9 9 9 9
11 11 11 11 11 11 11 11 11 11 10 10 10 10 10 10 10 10 10 10 10 10 10 10 10 11 11 10 10 10 10 10 10 10 10 10 10 10 10 9 9 9 9
11 11 11 11 11 11 11 11 10 10 10 10 10 10 10 10 10 10 10 10 9 10 10 10 10 10 10 10 10 10 10 10 10 10 10 10 10 10 9 9 9 9 8
11 11 10 10 10 10 10 10 10 10 10 10 9 9 9 9 9 9 9 9 9 9 9 9 10 10 10 10 10 10 10 10 9 9 9 9 9 9 9 9 9 8 8
10 10 10 10 10 10 10 10 9 9 9 9 9 9 9 9 9 9 9 9 9 9 9 9 9 9 9 9 10 10 9 9 9 9 9 9 9 9 8 8 8 8 8
10 10 10 9 9 9 9 9 9 9 9 9 9 9 8 8 8 8 8 8 8 8 8 9 9 9 9 9 9 9 9 9 9 9 8 8 8 8 8 8 8 8 8
9 9 9 9 9 9 9 9 9 8 8 8 8 8 8 8 8 8 8 8 8 8 8 8 8 8 8 8 8 8 8 8 8 8 8 8 8 8 8 8 8 7 7
9 8 8 8 8 8 8 8 8 8 8 8 8 7 7 7 7 7 8 8 7 7 7 7 7 7 7 7 7 7 7 8 8 8 7 7 7 7 7 7 7 7 7
8 8 8 8 8 7 7 7 7 7 7 7 7 7 7 7 7 7 7 7 7 7 7 6 6 6 6 7 7 7 7 7 7 7 7 7 7 7 7 7 6 6 6
8 8 7 7 7 7 7 7 7 7 6 6 7 7 7 7 7 7 7 7 6 6 6 6 6 6 6 6 6 6 6 6 6 6 6 6 6 6 6 6 6 6 6
7 7 7 7 7 6 6 6 6 6 6 6 6 6 6 6 6 6 6 6 6 6 6 5 6 6 6 6 6 6 6 6 6 6 6 6 6 6 6 6 6 6 6
7 7 7 6 6 6 6 5 6 6 5 5 5 5 5 5 5 5 5 5 5 5 5 5 5 5 5 5 5 5 5 5 5 5 5 5 5 5 5 5 5 5 5
6 6 6 6 5 5 5 5 5 5 5 5 5 5 5 5 5 5 4 5 4 4 4 5 5 5 5 5 5 5 4 4 5 5 5 5 5 5 5 5 5 5 5
6 6 6 5 5 5 5 5 5 5 5 4 4 5 5 4 4 4 4 4 4 4 4 4 4 4 4 4 4 4 4 4 4 4 4 4 4 4 4 4 4 4 4
5 5 5 5 5 5 5 5 4 4 4 4 4 4 4 4 4 4 4 4 4 4 4 4 4 4 4 4 4 4 4 4 4 4 4 4 4 4 4 4 4 4 4
5 5 5 5 4 4 4 4 4 4 4 4 3 3 3 3 3 3 3 3 3 3 3 3 3 3 3 3 3 3 4 4 4 4 4 4 4 3 3 3 3 3 3
4 4 4 4 4 4 4 4 4 4 4 3 3 3 3 3 3 3 3 3 3 3 3 3 3 3 3 3 3 3 3 3 3 3 3 3 3 3 3 3 3 3 3
4 4 4 4 4 4 4 3 3 3 3 3 3 3 3 3 3 3 3 3 3 3 3 3 2 2 2 2 2 3 3 3 3 3 3 3 3 3 2 2 2 2 2
Wind_Speed
5 5 5 4 4 4 4 4 3 4 4 5 5 5 5 6 6 6 6 6 7 7 6 6 6 5 4 4 4 5 5 5 5 4 2 2 3 3 3 4 3 4 3
3 4 5 4 5 4 4 4 3 3 4 4 4 5 5 5 6 6 7 7 7 7 7 7 6 5 6 5 4 5 5 5 5 5 3 3 4 3 3 4 4 4 3
3 4 4 5 5 5 4 4 4 4 4 4 4 5 5 5 6 7 7 7 7 8 8 7 7 7 7 6 6 5 4 4 5 5 4 3 4 4 4 4 4 4 4
3 4 4 4 5 5 4 4 4 4 4 4 4 4 5 5 5 6 7 7 7 7 7 7 7 7 7 7 6 6 5 5 5 5 5 4 4 4 4 4 4 4 4
3 3 4 4 4 4 4 4 4 4 4 4 4 4 4 4 4 5 6 6 7 7 7 7 7 6 6 6 5 6 6 5 5 5 5 5 5 4 5 4 4 4 4
3 3 3 4 4 4 4 4 4 4 5 5 5 5 5 4 3 4 5 6 7 7 7 7 7 6 6 7 7 7 7 8 8 6 6 7 7 6 5 5 5 4 4
3 3 3 4 4 4 4 4 4 5 5 5 5 5 5 4 3 4 6 6 7 7 7 7 6 6 7 8 8 9 9 9 9 9 8 8 7 6 6 7 6 6 5
3 3 3 4 4 4 3 3 4 4 4 4 5 5 4 4 3 4 6 7 7 7 7 7 7 7 7 7 8 8 9 8 9 9 9 8 6 5 6 7 6 5 4
3 4 4 4 4 4 4 4 4 4 4 4 4 4 4 4 3 3 5 6 6 7 7 7 8 8 5 5 8 8 8 7 6 6 6 5 4 4 5 5 5 5 5
4 4 4 4 4 4 4 4 3 3 4 4 4 4 4 4 2 3 5 5 6 5 5 6 6 7 5 6 8 8 9 8 6 6 6 6 7 7 8 8 7 6 5
3 3 4 4 4 4 4 3 3 3 3 3 3 3 3 3 3 3 4 5 5 5 5 5 4 4 5 6 8 8 8 7 6 6 5 5 5 5 6 7 7 7 6
1 2 3 3 3 3 3 3 3 3 3 3 3 3 3 3 3 3 4 6 6 6 5 5 4 2 4 5 6 6 5 5 5 5 5 5 5 6 6 6 6 6 6
1 1 1 2 2 3 3 3 3 3 3 3 3 3 3 3 2 3 4 6 7 6 5 4 4 3 4 5 5 5 5 5 6 6 6 6 5 5 5 4 5 4 4
1 1 1 1 1 2 2 3 3 3 3 3 3 3 3 3 3 2 3 4 4 5 4 3 3 4 4 4 3 4 4 5 5 6 6 5 4 4 5 5 5 5 5
1 1 1 1 1 2 2 2 3 3 2 3 4 4 4 4 3 3 4 4 4 4 4 3 3 3 3 3 3 4 4 4 5 5 5 5 5 5 5 5 5 5 6
1 1 1 1 1 2 2 1 0 2 1 2 3 4 4 3 3 3 4 4 4 4 3 3 3 3 4 4 4 4 4 4 5 5 5 5 6 6 6 5 6 6 7
2 1 1 1 1 2 2 2 2 1 1 2 2 3 3 4 3 3 3 3 3 4 4 4 4 4 4 4 5 5 5 5 5 5 5 6 6 6 6 6 7 7 7
2 1 1 1 2 2 3 2 2 3 3 3 2 1 2 3 3 3 3 2 3 4 4 5 5 5 5 5 5 5 5 5 5 5 5 5 6 6 6 7 7 8 7
2 2 2 2 2 3 3 3 3 3 3 3 3 2 2 3 3 3 3 3 3 4 4 5 5 5 5 5 5 5 5 5 5 5 5 6 6 6 6 7 7 7 8
3 2 2 2 3 3 3 3 3 3 3 3 4 4 3 3 3 3 3 4 4 4 4 5 5 6 5 5 5 5 5 5 5 5 5 5 6 6 7 7 7 7 7
3 3 3 3 3 3 3 4 4 3 3 4 4 3 3 3 4 4 4 4 5 5 4 4 5 5 5 5 5 5 6 5 5 5 5 5 6 6 6 6 7 7 7
3 3 3 4 4 4 4 4 4 4 4 5 4 3 3 4 4 4 4 4 4 4 4 4 5 5 5 5 5 5 5 5 5 5 5 5 5 6 6 6 6 7 7
3 4 4 4 4 4 5 5 5 5 5 5 5 4 4 4 4 5 5 4 4 4 4 4 5 5 5 6 6 5 6 6 6 6 5 5 5 6 6 6 7 7 7
4 4 5 5 4 5 5 5 5 5 6 6 6 5 5 5 5 6 5 5 4 5 5 5 5 6 7 6 6 5 5 6 6 6 7 6 5 5 5 6 6 7 7
5 5 5 5 5 5 6 6 6 6 6 6 6 6 6 6 6 6 5 5 6 6 6 6 6 6 8 8 7 6 5 5 6 6 5 5 5 6 6 6 5 5 5
6 6 6 6 6 6 6 6 7 7 7 7 7 7 6 6 6 6 6 6 6 6 6 6 7 8 8 7 7 6 6 5 5 6 5 4 5 5 5 5 6 5 5
Wind_Direction
207 203 200 204 208 208 211 219 223 220 214 216 217 220 218 216 214 210 219 222 226 227 225 231 233 235 233 234 233 235 241 246 250 259 249 222 218 224 207 226 222 214 188
214 205 204 201 203 206 209 216 218 219 213 217 217 219 216 215 216 218 220 220 223 227 229 230 231 227 233 236 232 231 233 238 240 247 241 227 228 226 225 231 227 225 218
210 207 206 204 203 205 210 213 216 216 212 216 216 218 219 220 218 224 227 228 229 231 232 232 233 232 232 230 230 236 237 236 238 238 240 230 228 221 225 232 234 226 223
200 209 212 211 205 208 212 215 219 220 218 219 220 219 223 227 228 229 230 232 233 234 234 233 233 233 236 232 232 236 237 236 238 239 237 227 225 225 224 227 231 226 226
201 210 215 214 206 207 209 212 218 219 223 222 225 223 222 228 237 240 239 240 238 235 233 234 234 235 252 244 240 237 234 235 236 238 238 234 229 222 227 228 231 233 230
214 220 211 210 205 208 211 212 213 217 222 218 224 228 227 229 232 248 255 246 246 242 238 237 233 227 226 226 238 242 241 239 239 239 240 239 239 235 231 229 230 231 241
217 227 213 213 210 208 209 209 208 214 216 218 223 229 235 235 213 229 249 253 249 245 240 237 234 232 225 230 223 223 233 242 247 249 247 247 244 236 231 229 229 235 245
218 223 223 216 217 216 212 215 216 216 214 220 223 228 240 245 227 236 248 249 251 246 243 242 242 240 231 233 235 235 236 234 235 240 248 251 249 242 234 235 238 238 248
228 229 228 224 224 224 222 226 225 221 219 223 225 226 233 240 221 233 241 249 250 251 251 248 247 248 232 228 240 242 240 237 227 229 248 254 254 241 235 222 219 222 239
239 237 233 227 228 231 232 232 230 227 228 227 228 228 234 243 214 222 244 247 251 253 255 251 249 249 236 220 236 241 244 241 232 217 220 227 229 218 210 221 224 226 237
251 237 232 228 232 235 237 236 236 228 224 226 235 242 244 247 225 221 239 249 255 256 255 255 252 224 230 229 240 246 250 250 239 231 223 219 218 219 216 219 225 228 233
241 237 234 230 230 236 232 233 238 235 227 230 239 253 259 257 261 250 244 258 273 259 258 257 256 223 236 243 242 244 241 237 235 231 226 225 222 219 219 217 218 223 236
212 225 244 247 230 231 226 225 235 237 239 242 245 256 265 267 264 245 244 250 263 262 264 279 285 263 244 245 236 230 225 231 229 228 230 231 230 224 219 215 213 217 228
196 209 248 270 271 246 236 230 235 241 244 250 253 261 269 270 272 275 271 262 253 258 266 264 248 245 244 251 244 232 233 236 235 233 232 230 225 217 215 214 213 211 222
214 216 248 265 273 275 264 255 249 253 258 261 262 263 267 270 288 304 282 275 271 266 272 268 268 264 250 247 247 242 237 233 233 235 232 228 223 220 220 220 220 218 227
230 239 256 268 269 272 273 273 341 276 304 287 302 294 286 297 311 291 284 280 276 258 252 254 256 257 256 254 250 249 244 240 239 238 235 233 228 224 221 218 218 223 230
234 250 249 257 271 277 273 272 282 265 229 246 266 280 291 310 303 283 281 282 253 226 235 246 253 254 255 255 254 253 251 247 243 239 235 234 233 230 225 224 222 226 233
231 229 239 255 270 274 275 269 271 282 291 298 280 258 293 302 301 289 275 266 254 231 241 247 252 256 258 257 258 258 256 250 242 239 239 238 235 232 230 230 228 229 233
237 242 240 256 266 270 275 273 270 276 283 293 300 300 304 298 285 277 241 254 261 251 247 253 258 260 260 259 257 257 257 252 247 242 242 242 239 236 237 237 235 231 234
229 220 237 249 257 259 264 268 270 275 281 287 287 294 304 300 299 297 269 266 264 264 260 260 262 263 261 260 260 259 257 257 254 249 246 244 242 240 239 241 240 235 233
237 223 219 237 247 251 255 259 262 266 271 278 282 293 305 277 278 280 278 275 271 268 266 267 268 268 267 267 265 262 260 259 257 254 250 247 244 242 241 241 241 241 239
236 237 236 239 245 251 256 258 261 267 271 275 281 281 263 264 271 273 275 277 277 279 278 272 266 266 268 268 265 262 263 263 262 260 256 252 248 246 246 243 240 240 239
232 236 241 245 248 251 254 257 260 264 269 273 277 277 269 267 270 272 274 278 280 281 283 280 276 275 273 270 266 262 260 263 264 264 262 257 250 247 245 243 243 243 239
232 236 241 243 246 250 254 260 264 267 270 272 273 271 268 267 267 268 271 274 277 278 277 274 273 275 279 279 275 269 269 272 273 267 262 260 256 254 250 246 244 243 241
235 241 244 248 249 252 256 260 264 266 269 270 270 270 269 268 268 269 269 269 271 272 273 272 271 271 273 272 271 271 278 282 280 276 266 257 255 253 254 252 249 252 248
239 240 244 248 252 254 256 259 261 265 267 269 269 269 268 267 267 267 268 269 271 273 274 272 269 269 270 269 272 279 280 279 276 271 264 257 255 253 252 250 250 248 247
Height
1521 1522 1522 1524 1524 1525 1526 1527 1527 1528 1529 1529 1530 1530 1531 1531 1531 1532 1532 1533 1534 1535 1535 1536 1536 1536 1537 1537 1537 1538 1538 1538 1538 1538 1538 1537 1536 1536 1535 1535 1535 1534 1534
1518 1519 1520 1521 1521 1522 1523 1524 1524 1525 1525 1526 1527 1527 1528 1528 1528 1529 1529 1530 1531 1531 1532 1533 1533 1533 1534 1534 1534 1535 1535 1535 1535 1534 1534 1534 1534 1533 1533 1533 1533 1532 1532
1515 1515 1516 1517 1518 1519 1520 1521 1521 1522 1522 1523 1524 1524 1524 1525 1525 1526 1526 1527 1528 1528 1529 1529 1530 1530 1530 1531 1531 1531 1531 1532 1532 1532 1531 1531 1531 1530 1530 1530 1530 1530 1529
1512 1512 1513 1514 1515 1516 1517 1517 1518 1518 1519 1520 1520 1521 1521 1522 1522 1523 1523 1524 1524 1525 1525 1525 1526 1527 1527 1527 1528 1528 1528 1528 1528 1529 1528 1528 1528 1527 1527 1527 1527 1527 1527
1509 1510 1510 1511 1511 1512 1513 1514 1514 1515 1516 1516 1517 1517 1518 1518 1519 1519 1520 1520 1521 1521 1521 1522 1522 1522 1523 1523 1524 1524 1525 1525 1525 1525 1525 1525 1525 1524 1525 1524 1524 1524 1524
1506 1507 1507 1508 1508 1509 1509 1510 1511 1511 1512 1513 1513 1514 1514 1514 1515 1515 1516 1516 1517 1517 1517 1518 1518 1518 1518 1519 1519 1520 1520 1521 1521 1521 1521 1521 1521 1521 1521 1521 1521 1521 1521
1504 1504 1505 1505 1505 1505 1506 1506 1507 1507 1508 1509 1509 1510 1510 1510 1511 1511 1512 1513 1513 1513 1514 1514 1514 1514 1514 1515 1515 1515 1515 1516 1517 1518 1517 1517 1517 1518 1518 1518 1518 1518 1518
1502 1502 1502 1502 1502 1502 1502 1503 1503 1504 1504 1505 1506 1506 1506 1506 1507 1507 1508 1509 1509 1509 1510 1510 1510 1511 1511 1511 1511 1511 1511 1511 1512 1512 1513 1513 1513 1513 1514 1514 1514 1514 1514
1499 1499 1499 1499 1499 1499 1499 1500 1500 1501 1501 1501 1502 1502 1502 1502 1503 1503 1504 1504 1505 1505 1505 1506 1506 1506 1507 1507 1507 1507 1507 1507 1507 1507 1508 1508 1508 1509 1509 1510 1510 1510 1510
1496 1496 1497 1497 1497 1497 1497 1497 1497 1497 1498 1498 1498 1499 1499 1499 1499 1500 1500 1500 1501 1501 1501 1501 1501 1501 1502 1502 1503 1503 1503 1503 1503 1503 1503 1504 1504 1504 1505 1505 1506 1507 1507
1494 1494 1494 1494 1494 1494 1494 1495 1495 1495 1495 1495 1495 1495 1495 1495 1496 1496 1496 1496 1496 1496 1496 1496 1496 1496 1497 1497 1498 1498 1498 1499 1499 1499 1499 1499 1499 1500 1500 1501 1502 1502 1503
1491 1491 1491 1491 1491 1491 1492 1492 1492 1492 1492 1492 1492 1492 1492 1492 1492 1492 1492 1492 1492 1492 1492 1492 1492 1492 1492 1492 1492 1492 1493 1494 1494 1494 1494 1494 1495 1495 1496 1496 1497 1498 1498
1489 1489 1489 1489 1489 1489 1489 1489 1489 1489 1489 1489 1489 1489 1489 1489 1489 1488 1488 1488 1488 1488 1487 1487 1487 1487 1487 1487 1487 1488 1488 1489 1489 1489 1489 1490 1490 1491 1491 1492 1492 1493 1494
1487 1486 1486 1486 1486 1486 1486 1486 1486 1486 1486 1486 1486 1486 1486 1485 1485 1485 1485 1484 1484 1483 1483 1483 1483 1482 1482 1482 1482 1483 1483 1483 1484 1484 1484 1485 1486 1486 1486 1487 1487 1488 1489
1484 1484 1484 1484 1484 1484 1484 1484 1483 1483 1483 1483 1483 1483 1482 1482 1481 1481 1480 1480 1480 1479 1479 1478 1478 1478 1478 1478 1478 1478 1478 1478 1479 1479 1479 1480 1480 1481 1481 1482 1483 1483 1484
1482 1482 1482 1481 1481 1481 1480 1480 1480 1480 1480 1479 1479 1479 1479 1478 1477 1477 1476 1476 1476 1475 1475 1474 1474 1474 1474 1474 1473 1473 1473 1474 1474 1474 1474 1475 1476 1476 1476 1477 1478 1478 1479
1480 1480 1479 1479 1478 1478 1478 1477 1477 1477 1476 1476 1476 1476 1475 1474 1474 1473 1472 1471 1471 1471 1470 1470 1470 1470 1470 1469 1469 1469 1469 1469 1469 1469 1469 1470 1470 1471 1471 1472 1472 1473 1473
1477 1477 1477 1477 1476 1476 1476 1475 1475 1474 1473 1473 1473 1472 1472 1471 1470 1469 1468 1467 1466 1466 1465 1465 1466 1466 1465 1465 1465 1465 1464 1464 1464 1464 1464 1464 1465 1465 1466 1466 1466 1467 1467
1475 1475 1475 1475 1474 1474 1473 1473 1472 1471 1471 1470 1470 1469 1468 1467 1467 1466 1464 1463 1462 1462 1461 1461 1461 1461 1461 1461 1460 1460 1460 1459 1459 1459 1459 1459 1459 1460 1460 1460 1461 1461 1462
1472 1472 1472 1472 1472 1471 1470 1470 1469 1469 1468 1467 1466 1466 1465 1464 1463 1461 1461 1460 1459 1458 1458 1457 1457 1457 1456 1456 1455 1455 1454 1454 1454 1453 1453 1453 1453 1453 1454 1454 1455 1455 1455
1469 1468 1468 1469 1468 1468 1467 1467 1466 1466 1465 1464 1463 1463 1461 1460 1459 1458 1457 1456 1455 1454 1454 1453 1452 1452 1451 1451 1450 1450 1449 1449 1448 1448 1447 1447 1447 1447 1447 1448 1448 1449 1449
1465 1465 1465 1465 1464 1464 1464 1464 1463 1462 1461 1461 1460 1459 1458 1457 1456 1455 1453 1452 1451 1450 1449 1448 1448 1447 1446 1446 1445 1445 1444 1443 1443 1442 1442 1441 1441 1442 1442 1442 1442 1442 1443
1461 1461 1461 1461 1461 1461 1460 1460 1459 1459 1458 1457 1456 1455 1454 1453 1452 1451 1450 1448 1447 1446 1445 1444 1443 1442 1441 1441 1440 1439 1439 1438 1438 1437 1437 1436 1436 1436 1436 1436 1436 1436 1436
1457 1457 1457 1457 1457 1457 1456 1456 1455 1454 1453 1453 1452 1450 1449 1448 1447 1446 1445 1444 1443 1442 1440 1439 1438 1437 1436 1435 1435 1434 1433 1433 1433 1432 1432 1431 1431 1430 1431 1430 1430 1430 1431
1453 1453 1453 1453 1453 1452 1452 1451 1450 1449 1449 1448 1447 1446 1445 1444 1443 1441 1440 1439 1438 1437 1436 1435 1433 1432 1431 1430 1429 1428 1428 1427 1427 1427 1427 1426 1426 1425 1425 1425 1425 1425 1425
1449 1449 1449 1448 1448 1447 1447 1446 1445 1445 1444 1443 1442 1441 1439 1438 1437 1436 1435 1434 1433 1432 1430 1429 1428 1427 1426 1425 1424 1423 1422 1422 1422 1422 1422 1421 1421 1421 1421 1420 1420 1420 1420